Sussex, NJ

12:44 PM EST on November 15, 2019 (GMT -0500)
Sussex

Weather History for KFWN - September, 2019

Change the Weather History Date:

Saturday, September 14, 2019

  Actual Average Record
Temperature  
Mean Temperature 65 °F -  
Max Temperature 72 °F 76 °F 88 °F (1957)
Min Temperature 59 °F 48 °F 34 °F (1967)
Growing Degree Days 15 (Base 50)    
Moisture  
Dew Point 61 °F    
Average Humidity 81    
Maximum Humidity 97    
Minimum Humidity 68    
Precipitation  
Precipitation 0.10 in - - ()
Sea Level Pressure  
Sea Level Pressure 30.23 in    
Wind  
Wind Speed 2 mph ()    
Max Wind Speed 10 mph    
Max Gust Speed 17 mph    
Visibility 7.7 miles    
Events Fog , Rain    
Averages and records for this station are not official NWS values.
T = Trace of Precipitation, MM = Missing Value Source: Averaged Metar Reports

Daily Weather History Graph

Daily Weather History Graph

Search for Another Location

Airport or City:

Astronomy

Sep. 14, 2019 Rise Set
Actual Time 6:37 AM EDT 7:09 PM EDT
Civil Twilight 6:09 AM EDT 7:37 PM EDT
Nautical Twilight 5:37 AM EDT 8:10 PM EDT
Astronomical Twilight 5:03 AM EDT 8:43 PM EDT
Moon 7:49 PM EDT (9/14) 6:48 AM EDT (9/14)
Length of Visible Light 13h 27m
Length of Day
12h 32m
Full, 100% of the Moon is Illuminated
Sep 14
Full
Sep 21
Last Quarter
Sep 28
New
Oct 5
First Quarter
Oct 13
Full

Hourly Weather History & Observations

Time (EDT) Temp. Dew Point Humidity Pressure Visibility Wind Dir Wind Speed Gust Speed Precip Events Conditions
12:53 AM 60.1 °F 52.0 °F 75% 30.39 in 10.0 mi Calm Calm - N/A   Overcast
1:53 AM 61.0 °F 51.1 °F 70% 30.38 in 10.0 mi Calm Calm - N/A   Overcast
2:53 AM 61.0 °F 51.1 °F 70% 30.35 in 10.0 mi Calm Calm - N/A   Overcast
3:53 AM 59.0 °F 53.1 °F 81% 30.33 in 10.0 mi SE 3.5 mph - N/A   Overcast
4:53 AM 60.1 °F 54.0 °F 80% 30.33 in 10.0 mi Calm Calm - N/A   Overcast
5:53 AM 60.1 °F 55.0 °F 83% 30.32 in 10.0 mi Calm Calm - N/A   Overcast
6:53 AM 60.1 °F 55.0 °F 83% 30.32 in 10.0 mi Calm Calm - N/A   Overcast
7:53 AM 62.1 °F 55.9 °F 80% 30.32 in 10.0 mi Calm Calm - N/A   Overcast
8:53 AM 64.9 °F 55.9 °F 73% 30.31 in 10.0 mi SW 5.8 mph - N/A   Overcast
9:53 AM 66.0 °F 57.0 °F 73% 30.31 in 10.0 mi SW 4.6 mph - N/A   Overcast
10:53 AM 68.0 °F 57.0 °F 68% 30.29 in 10.0 mi SSW 9.2 mph - N/A   Overcast
11:53 AM 66.9 °F 57.9 °F 73% 30.28 in 10.0 mi Variable 5.8 mph - N/A   Overcast
12:35 PM 69.1 °F 60.1 °F 73% 30.26 in 10.0 mi SW 6.9 mph - N/A   Overcast
12:53 PM 70.0 °F 60.1 °F 71% 30.26 in 10.0 mi SSW 6.9 mph - N/A   Overcast
1:14 PM 70.0 °F 60.1 °F 71% 30.25 in 10.0 mi Variable 6.9 mph - N/A   Overcast
1:23 PM 70.0 °F 60.1 °F 71% 30.24 in 10.0 mi SSW 10.4 mph 17.3 mph N/A   Overcast
1:53 PM 71.1 °F 60.1 °F 68% 30.23 in 10.0 mi Variable 6.9 mph - N/A   Overcast
2:53 PM 71.1 °F 61.0 °F 70% 30.21 in 10.0 mi SW 8.1 mph - N/A   Overcast
3:53 PM 71.1 °F 62.1 °F 73% 30.19 in 10.0 mi SW 5.8 mph - N/A   Overcast
4:37 PM 71.1 °F 62.1 °F 73% 30.18 in 10.0 mi Variable 5.8 mph - N/A   Overcast
4:53 PM 71.1 °F 63.0 °F 75% 30.17 in 10.0 mi SSW 4.6 mph - N/A   Overcast
5:18 PM 71.1 °F 63.0 °F 75% 30.18 in 10.0 mi SW 4.6 mph - N/A   Overcast
5:26 PM 71.1 °F 63.0 °F 75% 30.18 in 10.0 mi SW 4.6 mph - N/A   Overcast
5:53 PM 71.1 °F 63.0 °F 75% 30.17 in 10.0 mi SW 3.5 mph - N/A   Overcast
6:01 PM 71.1 °F 64.0 °F 78% 30.18 in 10.0 mi Variable 3.5 mph - N/A   Overcast
6:28 PM 69.1 °F 64.0 °F 84% 30.18 in 1.5 mi SW 3.5 mph - 0.05 in Rain Rain
6:30 PM 69.1 °F 64.0 °F 84% 30.18 in 0.8 mi Calm Calm - 0.08 in Rain Heavy Rain
6:40 PM 68.0 °F 64.9 °F 90% 30.18 in 2.0 mi Calm Calm - 0.10 in Rain Rain
6:48 PM 68.0 °F 64.4 °F 88% 30.18 in 4.0 mi SW 3.5 mph - 0.10 in Rain Light Rain
6:53 PM 68.0 °F 64.9 °F 90% 30.18 in 5.0 mi SSW 3.5 mph - 0.10 in Rain Light Rain
7:19 PM 66.9 °F 64.9 °F 93% 30.18 in 9.0 mi Calm Calm - 0.00 in   Overcast
7:53 PM 66.9 °F 64.9 °F 93% 30.18 in 10.0 mi Calm Calm - 0.00 in   Overcast
8:53 PM 66.9 °F 64.9 °F 93% 30.19 in 7.0 mi Calm Calm - N/A   Overcast
9:11 PM 66.9 °F 64.9 °F 93% 30.19 in 7.0 mi Calm Calm - N/A   Overcast
9:29 PM 66.9 °F 64.9 °F 93% 30.19 in 4.0 mi Calm Calm - N/A   Overcast
9:53 PM 66.9 °F 64.9 °F 93% 30.19 in 7.0 mi Calm Calm - N/A   Overcast
10:53 PM 66.0 °F 64.0 °F 93% 30.19 in 5.0 mi SSW 3.5 mph - N/A   Mostly Cloudy
11:38 PM 64.9 °F 64.0 °F 97% 30.18 in 1.5 mi Calm Calm - N/A   Partly Cloudy
11:42 PM 64.9 °F 63.0 °F 93% 30.18 in 0.8 mi Calm Calm - N/A   Scattered Clouds
11:50 PM 64.4 °F 62.6 °F 94% 30.18 in 0.5 mi Calm Calm - N/A Fog Fog
11:53 PM 64.0 °F 63.0 °F 96% 30.17 in 0.5 mi Calm Calm - N/A Fog Fog